Zurück zum Katalog

WORLDVIEW 3

AktivWissenschaftSSO
NORAD 40115·PAYLOAD·🇺🇸 United States

Gestartet Aug 13, 2014 von Vandenberg Space Force Base

Loading…

Nächste Überflüge (nächste 24 Stunden)

TLE

AktuellSource: Space-Track

Epoche: Sep 14, 2026, 13:51 UTC

1 40115U 14048A   26257.57730093  .00000578  00000-0  73796-4 0  9990
2 40115  97.8495 331.1478 0002332  57.1825 302.9614 14.85139980655177

Verfolge WORLDVIEW 3 in Echtzeit mit AllMySat

Download on the App Store